sat.trackr.live / text

‹ back to catalog

STARLINK-32311

NORAD 62114 · 2024-222A

PAYLOAD ACTIVE UNKNOWN

§ Identity

Operator
Country
US
Launch date
2024-11-27
Launch site
AFETR
Launch vehicle
Mass (kg)
RCS (m²)

Purposes: comms

External: N2YO · Heavens-Above · Gunter

§ Orbital elements

Epoch: 2026-09-20T22:38:30.132384Z

Period
94.27 min
Inclination
43.0036°
Eccentricity
0.0001935
Mean motion
15.27598458 rev/d
Perigee alt
481.7 km
Apogee alt
484.3 km
Semi-major
6,861.1 km
B*
5.8657e-4
RAAN
98.5141°
Arg perigee
268.4715°
Mean anomaly
91.5915°
Rev number
10,294

§ Raw data

STARLINK-323111 62114U 24222A   26263.94340431  .00015923  00000+0  58657-3 0  99962 62114  43.0036  98.5141 0001935 268.4715  91.5915 15.27598458102941

JSON: /api/v1/satellites/62114 · /tle

For live sub-satellite position, see the globe view (requires WebGL).

§ Visibility from observer

Set your observer location to see the next 7 days of passes ≥ 10°. The values pass through the URL so the page stays shareable.

No JS? Fill the form by hand. The geolocation button needs JavaScript.